This is the latest recevied weather packets stored in our database for station/object OE3MNS-13. If no packets are shown the sender has not sent any weather packets the latest 10 day(s).
| Time | Temp. | Humidity | Pressure | Rain* | Wind** | Luminosity | Snow |
|---|---|---|---|---|---|---|---|
| 1778301917 | 7.78° C | 92% | 1018.6 hPa | 1.02 mm | - | 35 W/m² | - |
| 1778301321 | 7.78° C | 92% | 1018.5 hPa | 1.02 mm | - | 27 W/m² | - |
| 1778301017 | 7.78° C | 92% | 1018.4 hPa | 1.02 mm | - | 26 W/m² | - |
| 1778300422 | 7.78° C | 92% | 1018.4 hPa | 1.02 mm | - | 22 W/m² | - |
| 1778299820 | 7.78° C | 92% | 1018.2 hPa | 1.02 mm | - | 18 W/m² | - |
| 1778299220 | 7.78° C | 92% | 1018.2 hPa | 1.02 mm | - | 12 W/m² | - |
| 1778298918 | 7.78° C | 92% | 1018.2 hPa | 1.02 mm | - | 10 W/m² | - |
| 1778298320 | 7.78° C | 92% | 1018.2 hPa | 1.02 mm | - | 6 W/m² | - |
| 1778298018 | 7.78° C | 91% | 1018.2 hPa | 1.02 mm | - | 4 W/m² | - |
| 1778297717 | 7.78° C | 90% | 1018.1 hPa | 1.02 mm | - | 3 W/m² | - |
| 1778297120 | 7.78° C | 90% | 1018.2 hPa | 1.02 mm | - | 1 W/m² | - |
| 1778296519 | 8.33° C | 90% | 1018 hPa | 1.02 mm | - | 0 W/m² | - |
| 1778296216 | 8.33° C | 90% | 1018.1 hPa | 1.02 mm | - | 0 W/m² | - |
| 1778295621 | 8.33° C | 89% | 1018 hPa | 1.02 mm | - | 0 W/m² | - |
| 1778295020 | 8.33° C | 90% | 1018 hPa | 1.02 mm | - | 0 W/m² | - |
| 1778294421 | 8.89° C | 89% | 1018 hPa | 1.02 mm | - | 0 W/m² | - |
| 1778294118 | 8.89° C | 89% | 1018 hPa | 1.02 mm | - | 0 W/m² | - |
| 1778293520 | 8.89° C | 88% | 1017.9 hPa | 1.02 mm | - | 0 W/m² | - |
| 1778293218 | 8.89° C | 87% | 1017.8 hPa | 1.02 mm | - | 0 W/m² | - |
| 1778292621 | 9.44° C | 87% | 1017.8 hPa | 1.02 mm | - | 0 W/m² | - |
| 1778292317 | 9.44° C | 86% | 1017.8 hPa | 1.02 mm | - | 0 W/m² | - |
| 1778291719 | 9.44° C | 86% | 1017.8 hPa | 1.02 mm | - | 0 W/m² | - |
| 1778291118 | 9.44° C | 87% | 1017.8 hPa | 1.02 mm | - | 0 W/m² | - |
| 1778290521 | 9.44° C | 86% | 1017.7 hPa | 1.02 mm | - | 0 W/m² | - |
| 1778289921 | 10° C | 86% | 1017.7 hPa | 1.02 mm | - | 0 W/m² | - |
* Rain latest hour (hover to see other rain measurements)
** Current wind speed in m/s (hover to see current wind gust speed)